PGT2964 LTAI-LTFM

Flight info

Callsign PGT2964
Flight time N/A
Altitude 34000
Route EKSEN1F/36R EKSEN UM855 SISPI
Aircraft B738/M-SDE2E3FGHIRWXY/LB1

Departure

Time N/A
Airport Antalya International Airport (LTAI)

Arrival

Time 2026-02-20 23:23
Airport İstanbul Airport (LTFM)
Time Latitude Longitude Altitude Speed Heading
2026-02-20 22:34 38.46301 30.61410 31032 ft 504 kts 355°
2026-02-20 22:35 38.49778 30.61425 31545 ft 502 kts 355°
2026-02-20 22:35 38.53296 30.61430 31957 ft 501 kts 354°
2026-02-20 22:35 38.56808 30.61422 32358 ft 502 kts 354°
2026-02-20 22:35 38.60300 30.61402 32728 ft 502 kts 354°
2026-02-20 22:36 38.63794 30.61375 33128 ft 502 kts 353°
2026-02-20 22:36 38.67267 30.61307 33570 ft 498 kts 351°
2026-02-20 22:36 38.70696 30.60930 33945 ft 491 kts 345°
2026-02-20 22:36 38.74056 30.60134 34402 ft 481 kts 338°
2026-02-20 22:37 38.77265 30.58940 34762 ft 472 kts 332°
2026-02-20 22:37 38.80283 30.57380 35091 ft 463 kts 325°
2026-02-20 22:37 38.83123 30.55501 35320 ft 456 kts 321°
2026-02-20 22:37 38.85841 30.53476 35541 ft 453 kts 319°
2026-02-20 22:38 38.88586 30.51365 35740 ft 453 kts 319°
2026-02-20 22:38 38.91303 30.49301 35901 ft 455 kts 320°
2026-02-20 22:38 38.94058 30.47270 36059 ft 458 kts 321°
2026-02-20 22:39 38.99661 30.43327 36116 ft 458 kts 322°
2026-02-20 22:39 39.05336 30.39505 36122 ft 460 kts 323°
2026-02-20 22:40 39.11055 30.35708 36142 ft 463 kts 323°
2026-02-20 22:40 39.16758 30.31944 36129 ft 456 kts 322°
2026-02-20 22:41 39.22419 30.28192 36125 ft 460 kts 322°
2026-02-20 22:41 39.28157 30.24378 36123 ft 461 kts 322°
2026-02-20 22:42 39.36699 30.18693 36133 ft 459 kts 322°
2026-02-20 22:42 39.42413 30.14876 36116 ft 458 kts 322°
2026-02-20 22:43 39.48093 30.11138 36110 ft 459 kts 324°
2026-02-20 22:43 39.53986 30.07756 36123 ft 467 kts 327°
2026-02-20 22:44 39.60001 30.04497 36124 ft 465 kts 328°
2026-02-20 22:44 39.65964 30.01267 36131 ft 463 kts 327°
2026-02-20 22:45 39.71935 29.97977 36120 ft 463 kts 327°
2026-02-20 22:45 39.77868 29.94678 36115 ft 462 kts 327°
2026-02-20 22:46 39.83841 29.91325 36123 ft 465 kts 327°
2026-02-20 22:46 39.89831 29.88061 36030 ft 463 kts 330°
2026-02-20 22:47 39.92888 29.86742 35756 ft 465 kts 335°
2026-02-20 22:47 39.96021 29.85764 35294 ft 472 kts 340°
2026-02-20 22:47 39.99280 29.84973 34696 ft 480 kts 342°
2026-02-20 22:47 40.02619 29.84276 33891 ft 487 kts 343°
2026-02-20 22:48 40.05966 29.83629 33364 ft 485 kts 344°
2026-02-20 22:48 40.09336 29.82991 32793 ft 484 kts 345°
2026-02-20 22:48 40.12631 29.82360 32213 ft 482 kts 345°
2026-02-20 22:48 40.15937 29.81714 31657 ft 479 kts 345°
2026-02-20 22:49 40.19234 29.81055 31074 ft 477 kts 345°
2026-02-20 22:49 40.22498 29.80388 30515 ft 474 kts 345°
2026-02-20 22:49 40.25733 29.79715 29896 ft 468 kts 345°
2026-02-20 22:49 40.28941 29.79047 29385 ft 456 kts 345°
2026-02-20 22:50 40.32063 29.78557 28824 ft 457 kts 351°
2026-02-20 22:50 40.35263 29.78640 28266 ft 461 kts
2026-02-20 22:50 40.38337 29.79744 28117 ft 452 kts 21°
2026-02-20 22:50 40.41093 29.81636 28136 ft 449 kts 32°
2026-02-20 22:51 40.46387 29.86153 28137 ft 455 kts 31°
2026-02-20 22:51 40.49210 29.88001 28108 ft 451 kts 17°
2026-02-20 22:51 40.52258 29.88864 28136 ft 447 kts 360°
2026-02-20 22:52 40.55386 29.88796 27933 ft 442 kts 349°
2026-02-20 22:52 40.58414 29.88365 27646 ft 434 kts 347°
2026-02-20 22:52 40.61319 29.87698 27257 ft 423 kts 339°
2026-02-20 22:52 40.64131 29.86554 26767 ft 415 kts 334°
2026-02-20 22:53 40.66798 29.85174 26267 ft 410 kts 331°
2026-02-20 22:53 40.69394 29.83697 25756 ft 407 kts 330°
2026-02-20 22:53 40.71978 29.82181 25232 ft 404 kts 329°
2026-02-20 22:53 40.74533 29.80656 24740 ft 401 kts 329°
2026-02-20 22:54 40.77056 29.79144 24249 ft 399 kts 330°
2026-02-20 22:54 40.79548 29.77557 23733 ft 394 kts 324°
2026-02-20 22:54 40.81766 29.75530 23212 ft 383 kts 313°
2026-02-20 22:54 40.83619 29.73061 22703 ft 373 kts 303°
2026-02-20 22:55 40.85172 29.70393 22211 ft 367 kts 299°
2026-02-20 22:55 40.86620 29.67611 21691 ft 363 kts 298°
2026-02-20 22:55 40.87991 29.64860 21213 ft 361 kts 297°
2026-02-20 22:55 40.89349 29.62108 20718 ft 358 kts 297°
2026-02-20 22:56 40.90718 29.59343 20252 ft 355 kts 298°
2026-02-20 22:56 40.92063 29.56648 19771 ft 353 kts 298°
2026-02-20 22:56 40.93372 29.53895 19290 ft 347 kts 293°
2026-02-20 22:56 40.94267 29.51046 19129 ft 329 kts 280°
2026-02-20 22:57 40.94652 29.48147 18993 ft 318 kts 269°
2026-02-20 22:57 40.94702 29.45231 18740 ft 315 kts 265°
2026-02-20 22:57 40.94622 29.42340 18478 ft 311 kts 263°
2026-02-20 22:57 40.94504 29.39510 18233 ft 310 kts 263°
2026-02-20 22:58 40.94379 29.36657 17984 ft 310 kts 263°
2026-02-20 22:58 40.94265 29.33842 17734 ft 308 kts 263°
2026-02-20 22:58 40.94157 29.30981 17483 ft 308 kts 263°
2026-02-20 22:58 40.94052 29.28156 17232 ft 308 kts 263°
2026-02-20 22:59 40.93951 29.25366 16988 ft 308 kts 263°
2026-02-20 22:59 40.93979 29.22505 16729 ft 310 kts 273°
2026-02-20 22:59 40.94601 29.19776 16477 ft 318 kts 295°
2026-02-20 22:59 40.96002 29.17479 16227 ft 322 kts 316°
2026-02-20 23:00 40.97878 29.15862 15871 ft 322 kts 331°
2026-02-20 23:00 40.99945 29.14764 15481 ft 322 kts 339°
2026-02-20 23:00 41.02074 29.13885 15079 ft 320 kts 341°
2026-02-20 23:00 41.04233 29.13065 14675 ft 317 kts 342°
2026-02-20 23:01 41.06395 29.12480 14283 ft 316 kts 353°
2026-02-20 23:01 41.08565 29.12427 13902 ft 315 kts
2026-02-20 23:01 41.10758 29.12719 13518 ft 313 kts
2026-02-20 23:01 41.12893 29.13146 13121 ft 311 kts
2026-02-20 23:02 41.15023 29.13615 12737 ft 308 kts
2026-02-20 23:02 41.17141 29.14076 12366 ft 305 kts
2026-02-20 23:02 41.19223 29.14515 12003 ft 304 kts
2026-02-20 23:02 41.21330 29.14946 11507 ft 306 kts
2026-02-20 23:03 41.23419 29.15366 11204 ft 301 kts
2026-02-20 23:03 41.25440 29.15952 11050 ft 289 kts 19°
2026-02-20 23:03 41.27160 29.17204 11005 ft 277 kts 44°
2026-02-20 23:03 41.28430 29.19101 11008 ft 276 kts 54°
2026-02-20 23:04 41.29578 29.21159 11015 ft 276 kts 55°
2026-02-20 23:04 41.30734 29.23212 11017 ft 277 kts 54°
2026-02-20 23:04 41.31920 29.25232 11006 ft 276 kts 53°
2026-02-20 23:04 41.33132 29.27230 11006 ft 277 kts 51°
2026-02-20 23:05 41.34516 29.29026 11011 ft 279 kts 39°
2026-02-20 23:05 41.36120 29.30532 11016 ft 280 kts 34°
2026-02-20 23:05 41.37763 29.31914 11010 ft 279 kts 33°
2026-02-20 23:05 41.39410 29.33303 11011 ft 280 kts 34°
2026-02-20 23:06 41.41054 29.34736 11015 ft 280 kts 34°
2026-02-20 23:06 41.42671 29.36169 11012 ft 280 kts 33°
2026-02-20 23:06 41.44389 29.37398 11009 ft 280 kts 22°
2026-02-20 23:06 41.46238 29.38248 11014 ft 280 kts 16°
2026-02-20 23:07 41.48125 29.38946 11013 ft 280 kts 15°
2026-02-20 23:07 41.49981 29.39626 11008 ft 279 kts 16°
2026-02-20 23:07 41.51877 29.40358 11014 ft 280 kts 17°
2026-02-20 23:07 41.53740 29.41103 11015 ft 279 kts 16°
2026-02-20 23:08 41.55628 29.41633 11013 ft 280 kts
2026-02-20 23:08 41.57585 29.41749 11018 ft 281 kts 359°
2026-02-20 23:08 41.59554 29.41690 11010 ft 280 kts 358°
2026-02-20 23:08 41.61488 29.41522 11011 ft 281 kts 350°
2026-02-20 23:09 41.63370 29.40773 11007 ft 280 kts 330°
2026-02-20 23:09 41.64830 29.39148 11011 ft 276 kts 303°
2026-02-20 23:09 41.65646 29.36828 10842 ft 274 kts 281°
2026-02-20 23:09 41.65838 29.34333 10588 ft 268 kts 264°
2026-02-20 23:10 41.65633 29.31892 10348 ft 265 kts 259°
2026-02-20 23:10 41.65322 29.29443 10140 ft 264 kts 258°
2026-02-20 23:10 41.65011 29.27004 9889 ft 265 kts 258°
2026-02-20 23:10 41.64725 29.24604 9569 ft 263 kts 259°
2026-02-20 23:11 41.64451 29.22209 9256 ft 260 kts 259°
2026-02-20 23:11 41.64184 29.19826 8932 ft 258 kts 259°
2026-02-20 23:11 41.63921 29.17468 8614 ft 256 kts 260°
2026-02-20 23:11 41.63658 29.15101 8299 ft 253 kts 260°
2026-02-20 23:12 41.63401 29.12809 7989 ft 251 kts 259°
2026-02-20 23:12 41.63139 29.10494 7677 ft 249 kts 259°
2026-02-20 23:12 41.62881 29.08228 7378 ft 246 kts 259°
2026-02-20 23:12 41.62626 29.05977 7073 ft 244 kts 259°
2026-02-20 23:13 41.62373 29.03738 6773 ft 242 kts 259°
2026-02-20 23:13 41.62121 29.01525 6472 ft 240 kts 259°
2026-02-20 23:13 41.61870 28.99350 6192 ft 237 kts 259°
2026-02-20 23:13 41.61621 28.97178 5889 ft 235 kts 259°
2026-02-20 23:14 41.61375 28.95025 5600 ft 233 kts 259°
2026-02-20 23:14 41.61130 28.92892 5317 ft 231 kts 259°
2026-02-20 23:14 41.60880 28.90726 5075 ft 240 kts 259°
2026-02-20 23:14 41.60707 28.88518 4996 ft 235 kts 268°
2026-02-20 23:15 41.60865 28.86357 5001 ft 234 kts 277°
2026-02-20 23:15 41.61164 28.84197 4984 ft 236 kts 278°
2026-02-20 23:15 41.61449 28.82045 4865 ft 237 kts 275°
2026-02-20 23:15 41.61392 28.79879 4539 ft 232 kts 249°
2026-02-20 23:16 41.60542 28.78108 4365 ft 225 kts 220°
2026-02-20 23:16 41.59235 28.76967 4051 ft 225 kts 201°
2026-02-20 23:16 41.57795 28.76362 4003 ft 210 kts 192°
2026-02-20 23:16 41.56422 28.75950 3990 ft 194 kts 191°
2026-02-20 23:17 41.55149 28.75567 4000 ft 179 kts 192°
2026-02-20 23:17 41.53960 28.75195 3991 ft 171 kts 191°
2026-02-20 23:17 41.52769 28.75087 3995 ft 169 kts 176°
2026-02-20 23:17 41.51606 28.75189 3995 ft 168 kts 177°
2026-02-20 23:18 41.50426 28.75222 3998 ft 168 kts 179°
2026-02-20 23:18 41.49252 28.75224 3997 ft 169 kts 179°
2026-02-20 23:18 41.48077 28.75322 4002 ft 167 kts 176°
2026-02-20 23:18 41.46946 28.75325 3944 ft 160 kts 180°
2026-02-20 23:19 41.45833 28.75309 3729 ft 158 kts 179°
2026-02-20 23:19 41.44740 28.75324 3512 ft 156 kts 178°
2026-02-20 23:19 41.43661 28.75343 3295 ft 155 kts 178°
2026-02-20 23:19 41.42587 28.75362 3106 ft 151 kts 178°
2026-02-20 23:20 41.41526 28.75382 2866 ft 150 kts 178°
2026-02-20 23:20 41.40513 28.75400 2619 ft 142 kts 177°
2026-02-20 23:20 41.39498 28.75420 2466 ft 146 kts 176°
2026-02-20 23:20 41.38493 28.75439 2236 ft 145 kts 176°
2026-02-20 23:21 41.37476 28.75459 2043 ft 146 kts 176°
2026-02-20 23:21 41.36472 28.75477 1844 ft 144 kts 175°
2026-02-20 23:21 41.35456 28.75496 1636 ft 144 kts 175°
2026-02-20 23:21 41.34443 28.75515 1441 ft 146 kts 176°
2026-02-20 23:22 41.33430 28.75535 1243 ft 145 kts 176°
2026-02-20 23:22 41.32415 28.75547 1027 ft 145 kts 178°
2026-02-20 23:22 41.31433 28.75584 837 ft 139 kts 176°
2026-02-20 23:22 41.30459 28.75587 658 ft 136 kts 178°
2026-02-20 23:23 41.29497 28.75614 490 ft 140 kts 178°
2026-02-20 23:23 41.28505 28.75631 344 ft 140 kts 178°
2026-02-20 23:23 41.27642 28.75648 334 ft 96 kts 179°
2026-02-20 23:23 41.27173 28.75654 334 ft 45 kts 178°
2026-02-20 23:24 41.26947 28.75660 334 ft 23 kts 178°
2026-02-20 23:24 41.26793 28.75624 334 ft 22 kts 198°
2026-02-20 23:24 41.26654 28.75531 334 ft 19 kts 213°
2026-02-20 23:24 41.26611 28.75414 334 ft 8 kts 251°
2026-02-20 23:25 41.26557 28.75381 334 ft 12 kts 184°
2026-02-20 23:25 41.26435 28.75381 334 ft 22 kts 179°
2026-02-20 23:25 41.26242 28.75386 334 ft 31 kts 179°
2026-02-20 23:25 41.26034 28.75390 334 ft 26 kts 180°
2026-02-20 23:26 41.25925 28.75345 334 ft 8 kts 256°
2026-02-20 23:26 41.25920 28.75268 334 ft 8 kts 271°
2026-02-20 23:26 41.25839 28.75133 334 ft 10 kts 162°
2026-02-20 23:27 41.25811 28.75165 334 ft 4 kts 248°
2026-02-20 23:27 41.25825 28.75098 334 ft 11 kts 277°
2026-02-20 23:27 41.25819 28.75029 334 ft 4 kts 254°
2026-02-20 23:27 41.25816 28.75017 334 ft 0 kts 251°